Location: Unspecified
(0.0000°N, 0.0000°E)
Time: 15:33:43
(UTC+00:00)

Gonets-D1 - Pass Details

Date: 15 June 2023
Orbit: 1412 x 1414 km, 82.6° (Epoch: 26 September)

Event Time Altitude Azimuth Distance (km) Brightness Sun altitude
Exits shadow 22:12:57 12° 358° (N) 3,328 11.0 -55.0°
Drops below altitude 10° 22:13:27 10° 359° (N) 3,496 11.1 -55.1°
Sets 22:16:16 0° 0° (N) 4,470 11.8 -55.6°
